Simultaneous Nadir Overpasses (SNOs) Predictions

Prediction of SNOs between LANDSAT-8 and METOP-A Satellite Orbit:

Table of predicted SNOs for the next 14.0 days since TLE Epoch: 11/21/2020
Index Date (LANDSAT-8) Time (LANDSAT-8) Lat,Lon (LANDSAT-8) SZA (LANDSAT-8 ) Date (METOP-A) Time (METOP-A) Lat,Lon (METOP-A) SZA (METOP-A ) Distance(km) Time Diff (sec)
1 11/23/2020 16:41:32 -81.45, 155.42 75.22 11/23/2020 16:41:21 -81.44, 155.43 75.23 1.29 11
2 11/23/2020 17:30:59 81.44, -37.20 104.76 11/23/2020 17:32:02 81.44, -37.20 104.79 0.05 63
3 11/26/2020 12:15:48 -81.43,-138.55 74.76 11/26/2020 12:15:43 -81.44,-138.39 74.73 2.88 5
4 11/26/2020 13:05:14 81.43, 29.18 105.27 11/26/2020 13:06:23 81.43, 29.34 105.31 2.68 69
5 11/29/2020 07:00:36 81.45, 120.60 105.75 11/29/2020 06:59:25 81.44, 120.59 105.72 0.55 71
6 11/29/2020 07:50:03 -81.45, -71.79 74.25 11/29/2020 07:50:05 -81.44, -71.84 74.26 1.28 2
7 12/02/2020 02:34:52 81.44,-173.10 106.14 12/02/2020 02:33:47 81.44,-172.90 106.13 3.25 65
8 12/02/2020 03:24:19 -81.44, -5.46 73.86 12/02/2020 03:24:27 -81.43, -5.30 73.84 2.83 8
9 12/04/2020 22:09:07 81.43,-106.83 106.47 12/04/2020 22:08:09 81.44,-106.80 106.46 1.39 58
